GW5801 Weather Reports


time (UTC)temp
C
wind
direction
speed
KPH
gust
KPH
rain 1hr
cm
rain 24hr
cm
rain mn
cm
humidity
%
barometer
mb
20260504223136 25 142 1.6 4.8 0.00 0.00 0.00 66 1012.3
20260504222634 25 213 1.6 4.8 0.00 0.00 0.00 65 1012.4
20260504222131 25 229 3.2 9.7 0.00 0.00 0.00 65 1012.6
20260504221628 25 158 1.6 11.3 0.00 0.00 0.00 65 1012.6
20260504221125 25 252 3.2 11.3 0.00 0.00 0.00 64 1012.6
20260504220621 25 244 3.2 6.4 0.00 0.00 0.00 64 1012.7
20260504220119 25 245 0.0 6.4 0.00 0.00 0.00 64 1012.6
20260504215615 25 187 1.6 3.2 0.00 0.00 0.00 64 1012.5
20260504215113 25 221 3.2 6.4 0.00 0.00 0.00 63 1012.7
20260504214608 25 81 1.6 4.8 0.00 0.00 0.00 64 1012.8
20260504214105 25 218 3.2 11.3 0.00 0.00 0.00 63 1012.8
20260504213601 26 216 3.2 4.8 0.00 0.00 0.00 63 1012.9
20260504213058 26 275 1.6 6.4 0.00 0.00 0.00 62 1012.8
20260504212554 26 199 3.2 6.4 0.00 0.00 0.00 62 1012.9
20260504212052 26 245 1.6 4.8 0.00 0.00 0.00 62 1012.9
20260504211548 26 213 3.2 4.8 0.00 0.00 0.00 61 1012.8
20260504211045 26 125 3.2 9.7 0.00 0.00 0.00 60 1013.1
20260504210542 27 167 4.8 6.4 0.00 0.00 0.00 58 1013.1
20260504210039 27 169 3.2 9.7 0.00 0.00 0.00 57 1013.1
20260504205537 27 301 1.6 4.8 0.00 0.00 0.00 58 1013.1
20260504205035 27 108 1.6 3.2 0.00 0.00 0.00 58 1013.1
20260504204532 27 128 1.6 11.3 0.00 0.00 0.00 57 1013.3
20260504204031 27 241 1.6 4.8 0.00 0.00 0.00 57 1013.4
20260504203529 27 254 1.6 6.4 0.00 0.00 0.00 57 1013.4
20260504203026 27 257 3.2 4.8 0.00 0.00 0.00 57 1013.3
20260504202521 27 195 1.6 3.2 0.00 0.00 0.00 57 1013.7
20260504202019 27 76 1.6 4.8 0.00 0.00 0.00 57 1013.5
20260504201516 27 234 3.2 4.8 0.00 0.00 0.00 56 1013.8
20260504201014 27 190 4.8 9.7 0.00 0.00 0.00 57 1013.6
20260504200510 27 300 0.0 9.7 0.00 0.00 0.00 58 1013.8
20260504200007 27 144 0.0 4.8 0.00 0.00 0.00 57 1013.9
20260504195503 27 288 1.6 9.7 0.00 0.00 0.00 57 1014.0
20260504194959 27 319 0.0 3.2 0.00 0.00 0.00 57 1014.1
20260504194455 27 130 4.8 11.3 0.00 0.00 0.00 56 1013.8
20260504193951 27 267 1.6 4.8 0.00 0.00 0.00 56 1014.1
20260504193449 27 276 1.6 1.6 0.00 0.00 0.00 56 1014.2
20260504192947 27 264 1.6 4.8 0.00 0.00 0.00 58 1014.4
20260504192444 27 272 4.8 9.7 0.00 0.00 0.00 55 1014.5
20260504191943 27 282 4.8 12.9 0.00 0.00 0.00 54 1014.3
20260504191441 28 216 4.8 11.3 0.00 0.00 0.00 53 1014.4
20260504190935 28 194 1.6 3.2 0.00 0.00 0.00 56 1014.5
20260504190431 28 312 1.6 4.8 0.00 0.00 0.00 52 1014.4
20260504185928 27 125 3.2 6.4 0.00 0.00 0.00 56 1014.3
20260504185426 27 250 1.6 9.7 0.00 0.00 0.00 55 1014.6
20260504184921 27 200 1.6 4.8 0.00 0.00 0.00 56 1014.6
20260504184417 27 58 1.6 11.3 0.00 0.00 0.00 55 1014.5
20260504183913 27 252 3.2 4.8 0.00 0.00 0.00 55 1014.3
20260504183411 27 189 6.4 9.7 0.00 0.00 0.00 54 1014.5
20260504182909 27 154 3.2 6.4 0.00 0.00 0.00 53 1014.6
20260504182405 27 274 0.0 11.3 0.00 0.00 0.00 54 1014.8
20260504181902 27 152 1.6 9.7 0.00 0.00 0.00 55 1014.9
20260504181359 27 210 4.8 11.3 0.00 0.00 0.00 55 1015.1
20260504180858 27 290 3.2 3.2 0.00 0.00 0.00 57 1015.0
20260504180356 27 225 4.8 6.4 0.00 0.00 0.00 57 1015.1
20260504175854 27 127 3.2 6.4 0.00 0.00 0.00 57 1015.1
20260504175350 27 126 4.8 9.7 0.00 0.00 0.00 55 1015.2
20260504174849 27 182 3.2 12.9 0.00 0.00 0.00 56 1015.2
20260504174346 26 18 0.0 9.7 0.00 0.00 0.00 57 1015.2
20260504173843 27 144 3.2 4.8 0.00 0.00 0.00 54 1015.4
20260504173340 26 234 1.6 4.8 0.00 0.00 0.00 53 1015.6
20260504172837 26 148 6.4 9.7 0.00 0.00 0.00 55 1015.6
20260504172333 27 241 1.6 9.7 0.00 0.00 0.00 55 1015.4
20260504171829 27 176 8.0 14.5 0.00 0.00 0.00 54 1015.7
20260504171326 26 234 1.6 9.7 0.00 0.00 0.00 58 1015.6
20260504170824 26 213 3.2 11.3 0.00 0.00 0.00 57 1015.7
20260504170320 26 145 4.8 6.4 0.00 0.00 0.00 57 1015.8
20260504160238 25 240 4.8 6.4 0.00 0.00 0.00 58 1016.5
20260504150704 24 84 3.2 9.7 0.00 0.00 0.00 64 1016.5
20260504150201 23 245 3.2 4.8 0.00 0.00 0.00 65 1016.6
20260504141130 22 161 4.8 6.4 0.00 0.00 0.00 69 1016.1
20260504140626 21 295 1.6 4.8 0.00 0.00 0.00 68 1016.2
20260504140122 21 245 1.6 3.2 0.00 0.00 0.00 69 1016.3
20260504130550 16 200 0.0 0.0 0.00 0.00 0.00 85 1016.4
20260504110438 14 200 0.0 0.0 0.00 0.00 0.00 90 1016.0
20260504100401 15 200 0.0 0.0 0.00 0.00 0.00 87 1016.0
20260504081754 16 200 0.0 0.0 0.00 0.00 0.00 77 1017.0
20260504081250 16 200 0.0 0.0 0.00 0.00 0.00 78 1016.9
20260504080747 16 200 0.0 0.0 0.00 0.00 0.00 77 1017.3
20260504080243 16 200 0.0 0.0 0.00 0.00 0.00 76 1017.3
20260504070211 15 200 0.0 0.0 0.00 0.00 0.00 79 1018.0
20260504060131 15 200 0.0 0.0 0.00 0.00 0.00 80 1018.4
20260504050600 15 200 0.0 0.0 0.00 0.00 0.00 78 1018.9
20260504045553 16 200 0.0 0.0 0.00 0.00 0.00 77 1019.0
20260504045049 16 200 0.0 0.0 0.00 0.00 0.00 76 1019.0
20260504044547 16 200 0.0 0.0 0.00 0.00 0.00 75 1019.0
20260504044043 16 200 0.0 0.0 0.00 0.00 0.00 74 1019.2
20260504043540 16 200 0.0 0.0 0.00 0.00 0.00 74 1019.2
20260504043038 16 200 0.0 0.0 0.00 0.00 0.00 73 1019.0
20260504042534 16 200 0.0 0.0 0.00 0.00 0.00 72 1019.0
20260504042032 16 200 0.0 0.0 0.00 0.00 0.00 71 1019.0
20260504041527 16 200 0.0 0.0 0.00 0.00 0.00 70 1019.0
20260504041023 17 200 0.0 0.0 0.00 0.00 0.00 70 1019.0
20260504040521 17 200 0.0 0.0 0.00 0.00 0.00 69 1019.0
20260504040018 17 200 0.0 0.0 0.00 0.00 0.00 69 1019.1
20260504035515 17 200 0.0 0.0 0.00 0.00 0.00 68 1018.8
20260504035011 17 200 0.0 0.0 0.00 0.00 0.00 67 1019.0
20260504034509 17 200 0.0 0.0 0.00 0.00 0.00 66 1019.1
20260504034006 18 200 0.0 0.0 0.00 0.00 0.00 66 1019.0
20260504033503 18 200 0.0 0.0 0.00 0.00 0.00 65 1019.1
20260504033000 18 202 0.0 0.0 0.00 0.00 0.00 65 1019.0
20260504032457 18 202 0.0 0.0 0.00 0.00 0.00 65 1019.2
20260504031954 18 202 0.0 0.0 0.00 0.00 0.00 64 1018.8
20260504031451 18 202 0.0 0.0 0.00 0.00 0.00 63 1018.7
20260504030947 18 202 0.0 0.0 0.00 0.00 0.00 62 1018.9
20260504030445 18 202 0.0 0.0 0.00 0.00 0.00 63 1018.8
20260504025940 19 202 0.0 0.0 0.00 0.00 0.00 61 1018.8
20260504025437 19 202 0.0 0.0 0.00 0.00 0.00 60 1019.0
20260504024935 20 202 0.0 0.0 0.00 0.00 0.00 59 1018.9
20260504024431 20 202 0.0 0.0 0.00 0.00 0.00 58 1019.1
20260504023928 20 208 0.0 1.6 0.00 0.00 0.00 57 1019.2
20260504023425 20 213 0.0 1.6 0.00 0.00 0.00 57 1019.0
20260504022920 20 185 0.0 1.6 0.00 0.00 0.00 56 1018.8
20260504022417 20 194 0.0 3.2 0.00 0.00 0.00 56 1018.9
20260504021914 20 189 0.0 1.6 0.00 0.00 0.00 56 1018.8
20260504021411 20 200 0.0 3.2 0.00 0.00 0.00 55 1018.9
20260504020909 20 249 0.0 0.0 0.00 0.00 0.00 56 1018.8
20260504020405 20 239 0.0 1.6 0.00 0.00 0.00 55 1018.7
20260504015901 20 204 0.0 1.6 0.00 0.00 0.00 55 1018.9
20260504015357 21 220 0.0 0.0 0.00 0.00 0.00 54 1018.9
20260504014853 21 193 0.0 3.2 0.00 0.00 0.00 54 1018.8
20260504014349 21 201 1.6 1.6 0.00 0.00 0.00 53 1018.8
20260504013847 21 194 1.6 3.2 0.00 0.00 0.00 53 1018.7
20260504013345 21 176 0.0 3.2 0.00 0.00 0.00 53 1018.8
20260504012841 21 199 1.6 4.8 0.00 0.00 0.00 52 1018.7
20260504012339 21 231 0.0 4.8 0.00 0.00 0.00 51 1018.7
20260504011836 21 179 1.6 3.2 0.00 0.00 0.00 51 1018.8
20260504011333 21 216 1.6 3.2 0.00 0.00 0.00 50 1018.5
20260504010829 21 184 0.0 1.6 0.00 0.00 0.00 50 1018.6
20260504010324 21 209 1.6 1.6 0.00 0.00 0.00 50 1018.7
20260504005821 22 207 0.0 1.6 0.00 0.00 0.00 50 1018.8
20260504005318 22 189 3.2 4.8 0.00 0.00 0.00 49 1018.8
20260504004816 22 214 0.0 3.2 0.00 0.00 0.00 49 1018.6
20260504004313 22 238 0.0 3.2 0.00 0.00 0.00 49 1018.7
20260504003809 22 244 0.0 3.2 0.00 0.00 0.00 48 1018.6
20260504003307 22 194 0.0 0.0 0.00 0.00 0.00 48 1018.7
20260504002803 22 216 0.0 1.6 0.00 0.00 0.00 47 1018.6
20260504002300 23 199 3.2 4.8 0.00 0.00 0.00 45 1018.4
20260504001758 23 204 0.0 1.6 0.00 0.00 0.00 46 1018.7
20260504001255 23 206 3.2 4.8 0.00 0.00 0.00 44 1018.6
20260504000751 23 273 1.6 3.2 0.00 0.00 0.00 44 1018.7
20260504000248 23 161 1.6 3.2 0.00 0.00 0.00 44 1018.6
20260503235746 23 217 0.0 4.8 0.00 0.00 0.00 44 1018.6
20260503235243 23 61 1.6 3.2 0.00 0.00 0.00 44 1018.7
20260503234741 23 292 1.6 4.8 0.00 0.00 0.00 43 1018.8
20260503234239 23 252 1.6 4.8 0.00 0.00 0.00 43 1018.8
20260503233736 24 192 3.2 3.2 0.00 0.00 0.00 43 1018.8
20260503233231 24 192 0.0 3.2 0.00 0.00 0.00 43 1019.0
20260503232728 24 250 3.2 9.7 0.00 0.00 0.00 42 1018.9
20260503232226 24 215 1.6 3.2 0.00 0.00 0.00 42 1019.0
20260503231724 24 138 3.2 6.4 0.00 0.00 0.00 41 1018.9
20260503231220 25 205 1.6 4.8 0.00 0.00 0.00 41 1019.0
20260503230716 25 29 0.0 1.6 0.00 0.00 0.00 42 1019.1
20260503230214 25 152 3.2 4.8 0.00 0.00 0.00 42 1019.1
20260503225711 25 192 1.6 4.8 0.00 0.00 0.00 41 1019.2
20260503225206 25 271 0.0 1.6 0.00 0.00 0.00 43 1019.0
20260503224704 25 83 1.6 3.2 0.00 0.00 0.00 42 1019.0
20260503224201 25 188 1.6 3.2 0.00 0.00 0.00 41 1019.3
20260503223659 25 77 1.6 3.2 0.00 0.00 0.00 40 1019.2